Location: Arroyo de Valdeoliva
(40.1604°N, 4.9878°W)
Time: 03:44:15
(UTC+00:00)

Cosmos 1782 - Visible Passes

Search period start: 17 March 2026 00:00
Search period end: 27 March 2026 00:00
Orbit: 461 x 469 km, 82.5° (Epoch: 16 March)

Date Brightness Start Highest point End Pass type
(mag) Time Alt. Az. Time Alt. Az. Time Alt. Az.
17 Mar 3.2 04:42:32 40° NNW 04:42:32 40° NNW 04:45:03 10° N visible
18 Mar 4.2 04:12:26 29° NNE 04:12:26 29° NNE 04:14:21 10° NNE visible
19 Mar 5.3 03:42:17 17° NE 03:42:17 17° NE 03:43:19 10° NNE visible
19 Mar 4.7 05:16:16 12° NW 05:16:16 12° NW 05:16:52 10° NW visible
20 Mar 4.6 04:46:03 16° NNW 04:46:03 16° NNW 04:47:03 10° NNW visible
21 Mar 4.8 04:15:45 17° N 04:15:45 17° N 04:16:39 10° N visible
22 Mar 5.4 03:45:24 14° NNE 03:45:24 14° NNE 03:45:55 10° NNE visible
